Myrtle Beach, SC

5:19 AM EDT on June 29, 2017 (GMT -0400)
Myrtle Beach International

Weather History for KMYR - November, 2012

Change the Weather History Date:

Friday, November 2, 2012

  Actual Average Record
Temperature  
Mean Temperature 54 °F -  
Max Temperature 71 °F 68 °F 83 °F (1950)
Min Temperature 37 °F 48 °F 33 °F (1993)
Degree Days  
Heating Degree Days 11    
Growing Degree Days 4 (Base 50)    
Moisture  
Dew Point 36 °F    
Average Humidity 59    
Maximum Humidity 77    
Minimum Humidity 31    
Precipitation  
Precipitation 0.00 in - - ()
Sea Level Pressure  
Sea Level Pressure 29.91 in    
Wind  
Wind Speed 7 mph (WNW)    
Max Wind Speed 15 mph    
Max Gust Speed 22 mph    
Visibility 10 miles    
Events      
Averages and records for this station are not official NWS values.
T = Trace of Precipitation, MM = Missing Value Source: NWS Daily Summary

Daily Weather History Graph

Daily Weather History Graph

Search for Another Location

Airport or City:

Trip Planner

Search our weather history database for the weather conditions in past years. The results will help you decide how hot, cold, wet, or windy it might be!

Date:

Astronomy

Nov. 02, 2012 Rise Set
Actual Time 7:36 AM EDT 6:22 PM EDT
Civil Twilight 7:10 AM EDT 6:47 PM EDT
Nautical Twilight 6:40 AM EDT 7:17 PM EDT
Astronomical Twilight 6:11 AM EDT 7:46 PM EDT
Moon 9:13 PM EDT (11/2) 10:49 AM EDT (11/2)
Length of Visible Light 11h 37m
Length of Day
10h 45m
Waning Gibbous, 87% of the Moon is Illuminated
Nov 2
Waning Gibbous
Nov 6
Last Quarter
Nov 13
New
Nov 20
First Quarter
Nov 28
Full

Hourly Weather History & Observations

Time (EDT) Temp. Windchill Dew Point Humidity Pressure Visibility Wind Dir Wind Speed Gust Speed Precip Events Conditions
12:15 AM 44.6 °F 40.7 °F 32.0 °F 61% 29.90 in 10.0 mi WSW 6.9 mph - N/A   Clear
12:35 AM 44.6 °F 40.2 °F 32.0 °F 61% 29.90 in 10.0 mi WSW 8.1 mph - N/A   Clear
12:55 AM 44.6 °F 40.7 °F 33.8 °F 66% 29.91 in 10.0 mi WSW 6.9 mph - N/A   Clear
1:15 AM 44.6 °F 40.2 °F 33.8 °F 66% 29.91 in 10.0 mi West 8.1 mph - N/A   Clear
1:35 AM 44.6 °F 39.2 °F 33.8 °F 66% 29.91 in 10.0 mi West 10.4 mph - N/A   Clear
1:55 AM 44.6 °F 39.7 °F 32.0 °F 61% 29.90 in 10.0 mi WNW 9.2 mph - N/A   Clear
2:15 AM 44.6 °F 39.2 °F 30.2 °F 57% 29.91 in 10.0 mi WNW 10.4 mph - N/A   Clear
2:35 AM 44.6 °F 40.2 °F 30.2 °F 57% 29.91 in 10.0 mi NW 8.1 mph - N/A   Clear
2:55 AM 42.8 °F 38.6 °F 30.2 °F 61% 29.91 in 10.0 mi NW 6.9 mph - N/A   Clear
3:15 AM 41.0 °F 36.4 °F 30.2 °F 65% 29.91 in 10.0 mi WNW 6.9 mph - N/A   Clear
3:35 AM 41.0 °F 37.1 °F 32.0 °F 70% 29.92 in 10.0 mi WNW 5.8 mph - N/A   Clear
3:55 AM 39.2 °F 35.9 °F 30.2 °F 70% 29.90 in 10.0 mi WNW 4.6 mph - N/A   Clear
4:15 AM 39.2 °F 37.0 °F 30.2 °F 70% 29.91 in 10.0 mi North 3.5 mph - N/A   Clear
4:35 AM 37.4 °F 32.8 °F 30.2 °F 75% 29.92 in 10.0 mi West 5.8 mph - N/A   Clear
4:55 AM 39.2 °F 35.9 °F 32.0 °F 75% 29.93 in 10.0 mi WNW 4.6 mph - N/A   Clear
5:15 AM 39.2 °F 35.9 °F 32.0 °F 75% 29.94 in 10.0 mi WNW 4.6 mph - N/A   Clear
5:35 AM 39.2 °F - 32.0 °F 75% 29.93 in 10.0 mi Calm Calm - N/A   Clear
5:50 AM 39.2 °F 35.0 °F 32.0 °F 75% 29.94 in 10.0 mi NW 5.8 mph - N/A   Clear
5:55 AM 39.2 °F - 32.0 °F 75% 29.94 in 10.0 mi Calm Calm - N/A   Clear
7:50 AM 46.4 °F 41.9 °F 33.8 °F 62% 29.97 in 10.0 mi West 9.2 mph - N/A   Clear
8:45 AM 44.6 °F 39.7 °F 33.8 °F 66% 29.97 in 10.0 mi West 9.2 mph - N/A   Clear
9:50 AM 51.8 °F - 32.0 °F 47% 29.97 in 10.0 mi West 9.2 mph - N/A   Scattered Clouds
10:50 AM 59.0 °F - 32.0 °F 36% 29.97 in 10.0 mi West 9.2 mph - N/A   Mostly Cloudy
11:50 AM 62.6 °F - 33.8 °F 34% 29.95 in 10.0 mi WSW 11.5 mph - N/A   Mostly Cloudy
1:45 PM 69.8 °F - 39.2 °F 33% 29.87 in 10.0 mi SW 15.0 mph 17.3 mph N/A   Mostly Cloudy
2:45 PM 71.6 °F - 39.2 °F 31% 29.83 in 10.0 mi WSW 13.8 mph 21.9 mph N/A   Scattered Clouds
3:50 PM 71.6 °F - 39.2 °F 31% 29.82 in 10.0 mi WSW 13.8 mph - N/A   Partly Cloudy
4:45 PM 71.6 °F - 39.2 °F 31% 29.83 in 10.0 mi West 11.5 mph - N/A   Clear
5:45 PM 69.8 °F - 41.0 °F 35% 29.84 in 10.0 mi WSW 9.2 mph - N/A   Clear
6:50 PM 64.4 °F - 42.8 °F 45% 29.86 in 10.0 mi Calm Calm - N/A   Clear
7:50 PM 59.0 °F - 44.6 °F 59% 29.89 in 10.0 mi Calm Calm - N/A   Clear
8:45 PM 57.2 °F - 44.6 °F 63% 29.90 in 10.0 mi Calm Calm - N/A   Clear
9:45 PM 57.2 °F - 46.4 °F 67% 29.93 in 10.0 mi North 15.0 mph - N/A   Clear
10:55 PM 53.6 °F - 46.4 °F 77% 29.95 in 10.0 mi NNE 10.4 mph - N/A   Clear
11:15 PM 55.4 °F - 44.6 °F 67% 29.95 in 10.0 mi NNE 9.2 mph - N/A   Clear
11:35 PM 55.4 °F - 44.6 °F 67% 29.95 in 10.0 mi NNE 9.2 mph - N/A   Partly Cloudy
11:55 PM 55.4 °F - 42.8 °F 63% 29.95 in 10.0 mi NNE 9.2 mph - N/A   Scattered Clouds